Glenwood, MN

9:14 PM CST on November 23, 2017 (GMT -0600)
Glenwood Municipal

Weather History for KGHW - December, 2014

Change the Weather History Date:

Monday, December 8, 2014

  Actual Average Record
Temperature  
Mean Temperature 24 °F -  
Max Temperature 33 °F 27 °F 53 °F (1990)
Min Temperature 15 °F 9 °F -13 °F (1955)
Degree Days  
Heating Degree Days 41    
Moisture  
Dew Point 20 °F    
Average Humidity 87    
Maximum Humidity 100    
Minimum Humidity 79    
Precipitation  
Precipitation 0.00 in - - ()
Sea Level Pressure  
Sea Level Pressure 30.12 in    
Wind  
Wind Speed 16 mph (NW)    
Max Wind Speed 28 mph    
Max Gust Speed 33 mph    
Visibility 8 miles    
Events Snow    
Averages and records for this station are not official NWS values.
T = Trace of Precipitation, MM = Missing Value Source: NWS Daily Summary

Daily Weather History Graph

Daily Weather History Graph

Search for Another Location

Airport or City:

Trip Planner

Search our weather history database for the weather conditions in past years. The results will help you decide how hot, cold, wet, or windy it might be!

Date:

Astronomy

Dec. 08, 2014 Rise Set
Actual Time 7:49 AM CST 4:37 PM CST
Civil Twilight 7:14 AM CST 5:11 PM CST
Nautical Twilight 6:37 AM CST 5:48 PM CST
Astronomical Twilight 6:01 AM CST 6:24 PM CST
Moon 7:05 PM CST (12/8) 9:16 AM CST (12/8)
Length of Visible Light 9h 56m
Length of Day
8h 48m
Waning Gibbous, 95% of the Moon is Illuminated
Dec 8
Waning Gibbous
Dec 14
Last Quarter
Dec 21
New
Dec 28
First Quarter
Jan 4
Full

Hourly Weather History & Observations

Time (CST) Temp. Windchill Dew Point Humidity Pressure Visibility Wind Dir Wind Speed Gust Speed Precip Events Conditions
12:14 AM 33.8 °F 28.6 °F 32.0 °F 93% 29.96 in 2.5 mi SW 5.8 mph - N/A   Mostly Cloudy
12:33 AM 33.8 °F 27.7 °F 33.8 °F 100% 29.96 in 4.0 mi WSW 6.9 mph - N/A   Scattered Clouds
12:53 AM 33.8 °F 27.0 °F 33.8 °F 100% 29.96 in 5.0 mi WSW 8.1 mph - N/A   Clear
1:13 AM 33.8 °F 26.4 °F 33.8 °F 100% 29.96 in 5.0 mi WSW 9.2 mph - N/A   Clear
1:33 AM 33.8 °F 25.8 °F 33.8 °F 100% 29.96 in 7.0 mi West 10.4 mph - N/A   Clear
1:53 AM 33.8 °F 24.8 °F 33.8 °F 100% 29.96 in 7.0 mi West 12.7 mph 16.1 mph N/A   Clear
2:13 AM 33.8 °F 24.8 °F 32.0 °F 93% 29.96 in 7.0 mi WNW 12.7 mph - N/A   Clear
2:33 AM 33.8 °F 24.8 °F 32.0 °F 93% 29.96 in 7.0 mi West 12.7 mph - N/A   Scattered Clouds
2:53 AM 33.8 °F 23.2 °F 32.0 °F 93% 29.97 in 7.0 mi West 17.3 mph 23.0 mph N/A   Unknown
3:13 AM 32.0 °F 19.5 °F 30.2 °F 93% 29.97 in 4.0 mi WNW 21.9 mph 26.5 mph N/A   Mist
3:33 AM 32.0 °F 20.5 °F 30.2 °F 93% 29.97 in 3.0 mi WNW 18.4 mph 28.8 mph N/A   Mist
3:53 AM 32.0 °F 21.6 °F 30.2 °F 93% 29.98 in 2.5 mi West 15.0 mph 25.3 mph N/A   Mist
4:13 AM 30.2 °F 16.8 °F 30.2 °F 100% 29.97 in 2.0 mi WNW 23.0 mph 27.6 mph N/A   Mist
4:33 AM 30.2 °F 17.4 °F 28.4 °F 93% 29.98 in 4.0 mi West 20.7 mph 29.9 mph N/A   Mist
4:53 AM 28.4 °F 15.1 °F 28.4 °F 100% 29.98 in 3.0 mi WNW 20.7 mph 29.9 mph N/A Snow Light Snow
5:13 AM 28.4 °F 13.3 °F 26.6 °F 93% 29.98 in 7.0 mi WNW 27.6 mph 31.1 mph N/A   Unknown
5:33 AM 28.4 °F 14.4 °F 24.8 °F 86% 29.99 in 4.0 mi West 23.0 mph 31.1 mph N/A Snow Light Snow
5:53 AM 26.6 °F 11.1 °F 24.8 °F 93% 30.00 in 7.0 mi WNW 26.5 mph 33.4 mph N/A   Unknown
6:13 AM 26.6 °F 12.0 °F 24.8 °F 93% 30.00 in 5.0 mi WNW 23.0 mph 29.9 mph N/A   Mist
6:33 AM 26.6 °F 13.4 °F 24.8 °F 93% 30.01 in 4.0 mi West 18.4 mph 27.6 mph N/A   Scattered Clouds
6:53 AM 26.6 °F 12.0 °F 24.8 °F 93% 30.02 in 4.0 mi WNW 23.0 mph 31.1 mph N/A   Scattered Clouds
7:13 AM 24.8 °F 9.3 °F 23.0 °F 93% 30.01 in 5.0 mi WNW 24.2 mph 32.2 mph N/A   Scattered Clouds
7:33 AM 24.8 °F 10.0 °F 23.0 °F 93% 30.02 in 7.0 mi WNW 21.9 mph 32.2 mph N/A   Scattered Clouds
7:53 AM 24.8 °F 10.0 °F 21.2 °F 86% 30.03 in 7.0 mi WNW 21.9 mph 26.5 mph N/A   Clear
8:13 AM 24.8 °F 9.6 °F 21.2 °F 86% 30.03 in 7.0 mi WNW 23.0 mph 28.8 mph N/A   Scattered Clouds
8:33 AM 24.8 °F 8.4 °F 21.2 °F 86% 30.04 in 7.0 mi WNW 27.6 mph 33.4 mph N/A   Clear
8:53 AM 24.8 °F 9.6 °F 21.2 °F 86% 30.04 in 7.0 mi WNW 23.0 mph 32.2 mph N/A   Clear
9:13 AM 24.8 °F 9.6 °F 19.4 °F 80% 30.05 in 10.0 mi WNW 23.0 mph 32.2 mph N/A   Clear
9:33 AM 24.8 °F 10.0 °F 19.4 °F 80% 30.05 in 10.0 mi NW 21.9 mph 27.6 mph N/A   Clear
9:53 AM 24.8 °F 10.3 °F 21.2 °F 86% 30.06 in 10.0 mi NW 20.7 mph 28.8 mph N/A   Unknown
10:13 AM 24.8 °F 11.9 °F 21.2 °F 86% 30.07 in 7.0 mi NW 16.1 mph - N/A   Unknown
10:33 AM 24.8 °F 11.5 °F 21.2 °F 86% 30.08 in 7.0 mi NW 17.3 mph - N/A   Unknown
10:53 AM 24.8 °F 10.7 °F 21.2 °F 86% 30.08 in 7.0 mi NW 19.6 mph 24.2 mph N/A   Unknown
11:13 AM 24.8 °F 10.7 °F 21.2 °F 86% 30.08 in 5.0 mi NW 19.6 mph 26.5 mph N/A   Mist
11:33 AM 24.8 °F 9.6 °F 19.4 °F 80% 30.07 in 10.0 mi NW 23.0 mph 26.5 mph N/A   Unknown
11:53 AM 23.0 °F 7.2 °F 19.4 °F 86% 30.07 in 10.0 mi WNW 23.0 mph 28.8 mph N/A   Unknown
12:13 PM 24.8 °F 10.3 °F 19.4 °F 80% 30.07 in 10.0 mi NW 20.7 mph 27.6 mph N/A   Unknown
12:33 PM 23.0 °F 9.2 °F 19.4 °F 86% 30.09 in 10.0 mi NW 17.3 mph 25.3 mph N/A   Unknown
12:53 PM 23.0 °F 7.6 °F 19.4 °F 86% 30.08 in 10.0 mi NW 21.9 mph 27.6 mph N/A   Unknown
1:13 PM 23.0 °F 8.3 °F 19.4 °F 86% 30.08 in 10.0 mi NW 19.6 mph 26.5 mph N/A   Unknown
1:33 PM 23.0 °F 8.0 °F 19.4 °F 86% 30.08 in 10.0 mi NW 20.7 mph 26.5 mph N/A   Unknown
1:53 PM 23.0 °F 8.7 °F 19.4 °F 86% 30.09 in 10.0 mi WNW 18.4 mph 25.3 mph N/A   Unknown
2:13 PM 23.0 °F 9.6 °F 19.4 °F 86% 30.10 in 10.0 mi NW 16.1 mph 23.0 mph N/A   Unknown
2:33 PM 21.2 °F 6.4 °F 17.6 °F 86% 30.11 in 10.0 mi NW 18.4 mph 28.8 mph N/A   Unknown
2:53 PM 21.2 °F 6.0 °F 17.6 °F 86% 30.12 in 10.0 mi NW 19.6 mph 29.9 mph N/A   Unknown
3:13 PM 21.2 °F 6.0 °F 17.6 °F 86% 30.14 in 10.0 mi NW 19.6 mph 27.6 mph N/A   Unknown
3:33 PM 21.2 °F 4.5 °F 15.8 °F 80% 30.15 in 10.0 mi NW 24.2 mph 27.6 mph N/A   Unknown
3:53 PM 21.2 °F 5.2 °F 15.8 °F 80% 30.17 in 10.0 mi NW 21.9 mph 28.8 mph N/A   Unknown
4:13 PM 19.4 °F 4.5 °F 15.8 °F 86% 30.18 in 10.0 mi NW 17.3 mph 25.3 mph N/A   Unknown
4:33 PM 19.4 °F 4.1 °F 15.8 °F 86% 30.19 in 10.0 mi NW 18.4 mph 24.2 mph N/A   Unknown
4:53 PM 19.4 °F 3.6 °F 15.8 °F 86% 30.20 in 10.0 mi NW 19.6 mph 25.3 mph N/A   Unknown
5:13 PM 19.4 °F 3.6 °F 15.8 °F 86% 30.22 in 10.0 mi NW 19.6 mph 28.8 mph N/A   Unknown
5:33 PM 19.4 °F 4.1 °F 14.0 °F 80% 30.23 in 10.0 mi NW 18.4 mph 28.8 mph N/A   Unknown
5:53 PM 17.6 °F 1.7 °F 14.0 °F 86% 30.24 in 10.0 mi NW 18.4 mph 28.8 mph N/A   Unknown
6:13 PM 17.6 °F 1.3 °F 12.2 °F 79% 30.25 in 10.0 mi NW 19.6 mph 25.3 mph N/A   Unknown
6:33 PM 17.6 °F 1.7 °F 12.2 °F 79% 30.26 in 10.0 mi NNW 18.4 mph 25.3 mph N/A   Unknown
6:53 PM 17.6 °F 3.2 °F 12.2 °F 79% 30.27 in 10.0 mi NNW 15.0 mph 18.4 mph N/A   Unknown
7:13 PM 15.8 °F 2.7 °F 12.2 °F 86% 30.27 in 10.0 mi NNW 11.5 mph 16.1 mph N/A   Unknown
7:33 PM 15.8 °F 1.4 °F 12.2 °F 86% 30.28 in 10.0 mi NNW 13.8 mph 20.7 mph N/A   Unknown
7:53 PM 15.8 °F 0.9 °F 10.4 °F 79% 30.28 in 10.0 mi NNW 15.0 mph - N/A   Unknown
8:13 PM 15.8 °F 0.3 °F 10.4 °F 79% 30.29 in 10.0 mi NW 16.1 mph - N/A   Unknown
8:33 PM 15.8 °F -0.6 °F 10.4 °F 79% 30.31 in 10.0 mi NW 18.4 mph - N/A   Unknown
8:53 PM 15.8 °F 2.1 °F 10.4 °F 79% 30.31 in 10.0 mi NNW 12.7 mph - N/A   Unknown
9:13 PM 15.8 °F 0.9 °F 10.4 °F 79% 30.31 in 10.0 mi NNW 15.0 mph - N/A   Unknown
9:33 PM 15.8 °F 3.4 °F 10.4 °F 79% 30.32 in 10.0 mi NNW 10.4 mph - N/A   Unknown
9:53 PM 15.8 °F 2.7 °F 10.4 °F 79% 30.33 in 10.0 mi NW 11.5 mph - N/A   Unknown
10:13 PM 15.8 °F 0.9 °F 10.4 °F 79% 30.34 in 10.0 mi NW 15.0 mph - N/A   Unknown
10:33 PM 15.8 °F 2.1 °F 10.4 °F 79% 30.35 in 10.0 mi NW 12.7 mph - N/A   Unknown
10:53 PM 15.8 °F 1.4 °F 10.4 °F 79% 30.36 in 10.0 mi NNW 13.8 mph - N/A   Unknown
11:13 PM 15.8 °F 3.4 °F 10.4 °F 79% 30.36 in 10.0 mi NNW 10.4 mph - N/A   Unknown
11:33 PM 15.8 °F 5.1 °F 10.4 °F 79% 30.36 in 10.0 mi NW 8.1 mph - N/A   Unknown
11:53 PM 15.8 °F 4.2 °F 10.4 °F 79% 30.37 in 10.0 mi NW 9.2 mph - N/A   Unknown